Home   Weather   Olten   Past weeks

Flag for Switzerland Past Weather in Olten, Solothurn, Switzerland — Yesterday and Last 2 Weeks

Now
25 °F

Chilly.


Feels Like: 17 °F
Forecast: 12 / 25 °F
Wind: 7 mph from East

Location: Wynau

Current Time: Jan 19, 2017 at 4:27:38 pm

Latest Report: Jan 19, 2017 at 3:00 pm


Visibility: N/A

Pressure: 30.51 "Hg

Humidity: 77%

Dew Point: 19 °F

Location of OltenLocation

Past Weather in Olten — Graph

°F

Olten Temperature Yesterday

Maximum temperature yesterday: 26 °F (at 6:00 pm)
Minimum temperature yesterday: 24 °F (at 7:00 am)
Average temperature yesterday: 25 °F

High & Low Weather Summary for the Past Weeks

 TemperatureHumidityPressure
High42 °F (Jan 13, 1:00 am)100% (Jan 11, 8:00 am)30.73 "Hg (Jan 11, 8:00 am)
Low11 °F (Jan 7, 3:00 am)61% (Jan 5, 7:00 pm)29.57 "Hg (Jan 13, 1:00 am)
Average28 °F85%30.27 "Hg
* Reported Jan 4 3:00 pm — Jan 19 3:00 pm, Olten, Weather by CustomWeather, © 2017

Note: Actual official high and low records may vary slightly from our data, if they occured in-between our weather recording intervals... More about our weather records

Advertising

Olten Weather History for the Previous 24 Hours

Scroll right to see more
 ConditionsComfort  
Time TempWeatherWind HumidityBarometerVisibility
3:00 pm
Thu, Jan 19
25 °FChilly.7 mph77%30.51 "HgN/A
2:00 pm25 °FChilly.5 mph76%30.51 "HgN/A
1:00 pm25 °FChilly.5 mph78%30.52 "HgN/A
12:00 pm25 °FCold.7 mph73%30.53 "HgN/A
11:00 am25 °FCold.7 mph81%30.53 "HgN/A
10:00 am24 °FCold.7 mph80%30.53 "HgN/A
9:00 am24 °FCold.9 mph81%30.52 "HgN/A
8:00 am24 °FCold.8 mph81%30.50 "HgN/A
7:00 am24 °FCold.10 mph79%30.49 "HgN/A
6:00 am25 °FCold.10 mph79%30.49 "HgN/A
5:00 am25 °FCold.9 mph80%30.49 "HgN/A
4:00 am25 °FCold.10 mph79%30.49 "HgN/A
3:00 am25 °FChilly.10 mph77%30.48 "HgN/A
2:00 am25 °FChilly.12 mph78%30.47 "HgN/A
1:00 am25 °FChilly.15 mph76%30.47 "HgN/A
12:00 am25 °FChilly.15 mph75%30.47 "HgN/A
11:00 pm
Wed, Jan 18
26 °FChilly.14 mph76%30.47 "HgN/A
10:00 pm26 °FChilly.18 mph71%30.47 "HgN/A
9:00 pm26 °FChilly.18 mph71%30.47 "HgN/A
8:00 pm26 °FChilly.14 mph75%30.48 "HgN/A
7:00 pm26 °FChilly.20 mph71%30.47 "HgN/A
6:00 pm26 °FChilly.14 mph73%30.47 "HgN/A
5:00 pm26 °FChilly.15 mph72%30.47 "HgN/A
4:00 pm26 °FChilly.20 mph70%30.47 "HgN/A
Weather by CustomWeather, © 2017

See weather overviewHow to use our weather pages